Time,TemperatureF,DewpointF,PressureIn,WindDirection,WindDirectionDegrees,WindSpeedMPH,WindSpeedGustMPH,Humidity,HourlyPrecipIn,Conditions,Clouds,dailyrainin,SoftwareType,DateUTC
2013-07-24 00:09:00,79.6,50.0,29.86,ESE,113,3.0,-999.0,35,-99.99,,,0.00,weatherlink.com 1.10,2013-07-24 07:09:00,
2013-07-24 00:24:00,79.6,50.0,29.85,ESE,112,3.0,-999.0,35,-99.99,,,0.00,weatherlink.com 1.10,2013-07-24 07:24:00,
2013-07-24 00:40:00,79.2,49.0,29.85,ESE,115,4.0,-999.0,35,-99.99,,,0.00,weatherlink.com 1.10,2013-07-24 07:40:00,
2013-07-24 00:55:00,77.9,49.0,29.85,ESE,115,0.0,-999.0,36,-99.99,,,0.00,weatherlink.com 1.10,2013-07-24 07:55:00,
2013-07-24 01:10:00,77.0,49.0,29.86,ESE,115,1.0,-999.0,38,-99.99,,,0.00,weatherlink.com 1.10,2013-07-24 08:10:00,
2013-07-24 01:25:00,77.2,52.0,29.85,ESE,119,0.0,-999.0,41,-99.99,,,0.00,weatherlink.com 1.10,2013-07-24 08:25:00,
2013-07-24 01:40:00,77.0,51.0,29.86,ESE,119,0.0,-999.0,40,-99.99,,,0.00,weatherlink.com 1.10,2013-07-24 08:40:00,
2013-07-24 01:55:00,76.7,51.0,29.85,ESE,119,0.0,-999.0,41,-99.99,,,0.00,weatherlink.com 1.10,2013-07-24 08:55:00,
2013-07-24 02:10:00,75.6,50.0,29.85,ESE,119,0.0,-999.0,40,-99.99,,,0.00,weatherlink.com 1.10,2013-07-24 09:10:00,
2013-07-24 02:25:00,74.7,49.0,29.86,ESE,119,0.0,-999.0,41,-99.99,,,0.00,weatherlink.com 1.10,2013-07-24 09:25:00,
2013-07-24 02:40:00,74.6,52.0,29.86,South,178,2.0,-999.0,45,-99.99,,,0.00,weatherlink.com 1.10,2013-07-24 09:40:00,
2013-07-24 02:55:00,74.7,51.0,29.86,SW,232,12.0,-999.0,44,-99.99,,,0.00,weatherlink.com 1.10,2013-07-24 09:55:00,
2013-07-24 03:10:00,74.6,52.0,29.86,SW,228,4.0,-999.0,45,-99.99,,,0.00,weatherlink.com 1.10,2013-07-24 10:10:00,
2013-07-24 03:26:00,74.4,52.0,29.86,SW,229,2.0,-999.0,45,-99.99,,,0.00,weatherlink.com 1.10,2013-07-24 10:26:00,
2013-07-24 03:41:00,74.0,51.0,29.86,SW,224,2.0,-999.0,44,-99.99,,,0.00,weatherlink.com 1.10,2013-07-24 10:41:00,
2013-07-24 03:56:00,73.3,51.0,29.86,SW,219,0.0,-999.0,45,-99.99,,,0.00,weatherlink.com 1.10,2013-07-24 10:56:00,
2013-07-24 04:26:00,71.8,50.0,29.86,SW,219,4.0,-999.0,46,-99.99,,,0.00,weatherlink.com 1.10,2013-07-24 11:26:00,
2013-07-24 04:41:00,71.3,50.0,29.87,SW,219,6.0,-999.0,47,-99.99,,,0.00,weatherlink.com 1.10,2013-07-24 11:41:00,
2013-07-24 05:12:00,71.5,50.0,29.87,SW,214,0.0,-999.0,47,-99.99,,,0.00,weatherlink.com 1.10,2013-07-24 12:12:00,
2013-07-24 05:26:00,71.1,50.0,29.88,SW,214,0.0,-999.0,48,-99.99,,,0.00,weatherlink.com 1.10,2013-07-24 12:26:00,
2013-07-24 05:41:00,70.8,50.0,29.88,SW,221,7.0,-999.0,48,-99.99,,,0.00,weatherlink.com 1.10,2013-07-24 12:41:00,
2013-07-24 05:56:00,70.3,50.0,29.87,SW,220,0.0,-999.0,49,-99.99,,,0.00,weatherlink.com 1.10,2013-07-24 12:56:00,
2013-07-24 06:12:00,70.3,50.0,29.88,SW,220,0.0,-999.0,49,-99.99,,,0.00,weatherlink.com 1.10,2013-07-24 13:12:00,
2013-07-24 06:27:00,69.8,49.0,29.89,SW,220,0.0,-999.0,48,-99.99,,,0.00,weatherlink.com 1.10,2013-07-24 13:27:00,
2013-07-24 06:42:00,69.6,49.0,29.88,SW,220,0.0,-999.0,48,-99.99,,,0.00,weatherlink.com 1.10,2013-07-24 13:42:00,
2013-07-24 06:57:00,70.3,49.0,29.88,SW,220,1.0,-999.0,47,-99.99,,,0.00,weatherlink.com 1.10,2013-07-24 13:57:00,
2013-07-24 07:12:00,71.3,49.0,29.89,SW,220,0.0,-999.0,45,-99.99,,,0.00,weatherlink.com 1.10,2013-07-24 14:12:00,
2013-07-24 07:27:00,73.0,49.0,29.88,SW,220,3.0,-999.0,43,-99.99,,,0.00,weatherlink.com 1.10,2013-07-24 14:27:00,
2013-07-24 07:42:00,74.7,49.0,29.88,SW,221,3.0,-999.0,40,-99.99,,,0.00,weatherlink.com 1.10,2013-07-24 14:42:00,
2013-07-24 07:57:00,76.5,49.0,29.87,SW,221,0.0,-999.0,38,-99.99,,,0.00,weatherlink.com 1.10,2013-07-24 14:57:00,
2013-07-24 08:12:00,78.5,49.0,29.87,SW,221,0.0,-999.0,36,-99.99,,,0.00,weatherlink.com 1.10,2013-07-24 15:12:00,
2013-07-24 08:27:00,81.1,49.0,29.87,SW,221,4.0,-999.0,33,-99.99,,,0.00,weatherlink.com 1.10,2013-07-24 15:27:00,
2013-07-24 08:42:00,83.0,49.0,29.87,SW,219,3.0,-999.0,31,-99.99,,,0.00,weatherlink.com 1.10,2013-07-24 15:42:00,
2013-07-24 08:57:00,84.1,49.0,29.86,SSW,209,0.0,-999.0,30,-99.99,,,0.00,weatherlink.com 1.10,2013-07-24 15:57:00,
2013-07-24 09:13:00,85.3,49.0,29.86,SSE,150,2.0,-999.0,28,-99.99,,,0.00,weatherlink.com 1.10,2013-07-24 16:13:00,
2013-07-24 09:28:00,86.3,50.0,29.86,SSE,150,2.0,-999.0,28,-99.99,,,0.00,weatherlink.com 1.10,2013-07-24 16:28:00,
2013-07-24 09:44:00,87.8,51.0,29.86,SSE,150,4.0,-999.0,28,-99.99,,,0.00,weatherlink.com 1.10,2013-07-24 16:44:00,
2013-07-24 09:58:00,89.5,51.0,29.85,West,279,2.0,-999.0,27,-99.99,,,0.00,weatherlink.com 1.10,2013-07-24 16:58:00,
2013-07-24 10:13:00,92.1,50.0,29.85,North,5,14.0,-999.0,24,-99.99,,,0.00,weatherlink.com 1.10,2013-07-24 17:13:00,
2013-07-24 10:28:00,92.9,51.0,29.85,NNW,345,3.0,-999.0,24,-99.99,,,0.00,weatherlink.com 1.10,2013-07-24 17:28:00,
2013-07-24 10:43:00,94.3,51.0,29.84,NNW,342,7.0,-999.0,23,-99.99,,,0.00,weatherlink.com 1.10,2013-07-24 17:43:00,
2013-07-24 10:58:00,95.6,51.0,29.83,WNW,298,11.0,-999.0,22,-99.99,,,0.00,weatherlink.com 1.10,2013-07-24 17:58:00,
2013-07-24 11:13:00,97.1,51.0,29.83,NW,315,6.0,-999.0,21,-99.99,,,0.00,weatherlink.com 1.10,2013-07-24 18:13:00,
2013-07-24 11:29:00,96.6,51.0,29.83,North,5,5.0,-999.0,21,-99.99,,,0.00,weatherlink.com 1.10,2013-07-24 18:29:00,
2013-07-24 11:44:00,96.8,50.0,29.82,SSW,196,7.0,-999.0,20,-99.99,,,0.00,weatherlink.com 1.10,2013-07-24 18:44:00,
2013-07-24 11:59:00,96.6,49.0,29.82,South,183,4.0,-999.0,20,-99.99,,,0.00,weatherlink.com 1.10,2013-07-24 18:59:00,
2013-07-24 12:14:00,98.0,49.0,29.82,SSW,202,3.0,-999.0,19,-99.99,,,0.00,weatherlink.com 1.10,2013-07-24 19:14:00,
2013-07-24 12:29:00,99.7,48.0,29.82,SSW,210,4.0,-999.0,17,-99.99,,,0.00,weatherlink.com 1.10,2013-07-24 19:29:00,
2013-07-24 12:44:00,99.7,48.0,29.81,WSW,248,5.0,-999.0,17,-99.99,,,0.00,weatherlink.com 1.10,2013-07-24 19:44:00,
2013-07-24 12:59:00,99.9,48.0,29.81,WSW,239,0.0,-999.0,17,-99.99,,,0.00,weatherlink.com 1.10,2013-07-24 19:59:00,
2013-07-24 13:29:00,99.2,47.0,29.81,South,172,3.0,-999.0,17,-99.99,,,0.00,weatherlink.com 1.10,2013-07-24 20:29:00,
2013-07-24 13:44:00,101.0,47.0,29.80,WSW,248,7.0,-999.0,16,-99.99,,,0.00,weatherlink.com 1.10,2013-07-24 20:44:00,
2013-07-24 13:59:00,102.0,46.0,29.80,WSW,238,9.0,-999.0,15,-99.99,,,0.00,weatherlink.com 1.10,2013-07-24 20:59:00,
2013-07-24 14:14:00,101.2,47.0,29.79,South,184,10.0,-999.0,16,-99.99,,,0.00,weatherlink.com 1.10,2013-07-24 21:14:00,
2013-07-24 14:30:00,101.0,45.0,29.79,South,171,12.0,-999.0,15,-99.99,,,0.00,weatherlink.com 1.10,2013-07-24 21:30:00,
2013-07-24 14:45:00,101.0,44.0,29.79,SSW,211,11.0,-999.0,14,-99.99,,,0.00,weatherlink.com 1.10,2013-07-24 21:45:00,
2013-07-24 15:00:00,101.2,42.0,29.78,SSW,198,4.0,-999.0,13,-99.99,,,0.00,weatherlink.com 1.10,2013-07-24 22:00:00,
2013-07-24 15:15:00,101.7,42.0,29.77,South,183,16.0,-999.0,13,-99.99,,,0.00,weatherlink.com 1.10,2013-07-24 22:15:00,
2013-07-24 15:30:00,101.2,44.0,29.77,NNW,345,13.0,-999.0,14,-99.99,,,0.00,weatherlink.com 1.10,2013-07-24 22:30:00,
2013-07-24 15:45:00,102.8,43.0,29.77,NNW,340,17.0,-999.0,13,-99.99,,,0.00,weatherlink.com 1.10,2013-07-24 22:45:00,
2013-07-24 16:00:00,101.7,40.0,29.77,NW,321,15.0,-999.0,12,-99.99,,,0.00,weatherlink.com 1.10,2013-07-24 23:00:00,
2013-07-24 16:15:00,101.7,38.0,29.77,NW,325,14.0,-999.0,11,-99.99,,,0.00,weatherlink.com 1.10,2013-07-24 23:15:00,
2013-07-24 16:30:00,101.0,40.0,29.77,NW,323,20.0,-999.0,12,-99.99,,,0.00,weatherlink.com 1.10,2013-07-24 23:30:00,
2013-07-24 16:45:00,100.7,39.0,29.77,NNW,333,12.0,-999.0,12,-99.99,,,0.00,weatherlink.com 1.10,2013-07-24 23:45:00,
2013-07-24 17:00:00,100.4,39.0,29.78,WNW,292,14.0,-999.0,12,-99.99,,,0.00,weatherlink.com 1.10,2013-07-25 00:00:00,
2013-07-24 17:15:00,100.4,41.0,29.78,WNW,292,13.0,-999.0,13,-99.99,,,0.00,weatherlink.com 1.10,2013-07-25 00:15:00,
2013-07-24 17:31:00,100.2,39.0,29.78,SW,227,7.0,-999.0,12,-99.99,,,0.00,weatherlink.com 1.10,2013-07-25 00:31:00,
2013-07-24 17:46:00,99.7,39.0,29.78,WSW,238,15.0,-999.0,12,-99.99,,,0.00,weatherlink.com 1.10,2013-07-25 00:46:00,
2013-07-24 18:01:00,98.5,42.0,29.78,WSW,245,14.0,-999.0,14,-99.99,,,0.00,weatherlink.com 1.10,2013-07-25 01:01:00,
2013-07-24 18:16:00,97.1,42.0,29.78,SW,232,10.0,-999.0,15,-99.99,,,0.00,weatherlink.com 1.10,2013-07-25 01:16:00,
2013-07-24 18:46:00,94.9,42.0,29.79,SW,230,4.0,-999.0,16,-99.99,,,0.00,weatherlink.com 1.10,2013-07-25 01:46:00,
2013-07-24 19:01:00,93.2,45.0,29.80,West,268,9.0,-999.0,19,-99.99,,,0.00,weatherlink.com 1.10,2013-07-25 02:01:00,
2013-07-24 19:16:00,92.1,46.0,29.79,SW,229,12.0,-999.0,20,-99.99,,,0.00,weatherlink.com 1.10,2013-07-25 02:16:00,
2013-07-24 19:31:00,90.7,46.0,29.80,SW,221,7.0,-999.0,21,-99.99,,,0.00,weatherlink.com 1.10,2013-07-25 02:31:00,
2013-07-24 19:46:00,89.5,45.0,29.80,SW,232,5.0,-999.0,21,-99.99,,,0.00,weatherlink.com 1.10,2013-07-25 02:46:00,
2013-07-24 20:01:00,88.2,45.0,29.81,SW,229,7.0,-999.0,22,-99.99,,,0.00,weatherlink.com 1.10,2013-07-25 03:01:00,
2013-07-24 20:16:00,87.2,45.0,29.79,SW,236,6.0,-999.0,23,-99.99,,,0.00,weatherlink.com 1.10,2013-07-25 03:16:00,
2013-07-24 20:31:00,86.5,45.0,29.80,WSW,254,7.0,-999.0,23,-99.99,,,0.00,weatherlink.com 1.10,2013-07-25 03:31:00,
2013-07-24 20:46:00,86.1,45.0,29.80,SW,232,4.0,-999.0,24,-99.99,,,0.00,weatherlink.com 1.10,2013-07-25 03:46:00,
2013-07-24 21:02:00,85.7,45.0,29.81,SW,231,5.0,-999.0,24,-99.99,,,0.00,weatherlink.com 1.10,2013-07-25 04:02:00,
2013-07-24 21:17:00,85.1,46.0,29.80,WSW,257,7.0,-999.0,25,-99.99,,,0.00,weatherlink.com 1.10,2013-07-25 04:17:00,
2013-07-24 21:32:00,84.7,45.0,29.80,WSW,248,0.0,-999.0,25,-99.99,,,0.00,weatherlink.com 1.10,2013-07-25 04:32:00,
2013-07-24 21:47:00,84.3,45.0,29.81,WSW,249,1.0,-999.0,25,-99.99,,,0.00,weatherlink.com 1.10,2013-07-25 04:47:00,
2013-07-24 22:02:00,84.0,46.0,29.82,WSW,243,5.0,-999.0,26,-99.99,,,0.00,weatherlink.com 1.10,2013-07-25 05:02:00,
2013-07-24 22:17:00,84.0,46.0,29.80,SSW,203,5.0,-999.0,26,-99.99,,,0.00,weatherlink.com 1.10,2013-07-25 05:17:00,
2013-07-24 22:32:00,83.8,46.0,29.80,South,190,0.0,-999.0,27,-99.99,,,0.00,weatherlink.com 1.10,2013-07-25 05:32:00,
2013-07-24 22:47:00,83.2,46.0,29.80,South,190,0.0,-999.0,27,-99.99,,,0.00,weatherlink.com 1.10,2013-07-25 05:47:00,
2013-07-24 23:02:00,82.8,46.0,29.80,South,190,0.0,-999.0,27,-99.99,,,0.00,weatherlink.com 1.10,2013-07-25 06:02:00,
2013-07-24 23:17:00,82.4,46.0,29.80,South,189,0.0,-999.0,28,-99.99,,,0.00,weatherlink.com 1.10,2013-07-25 06:17:00,
2013-07-24 23:32:00,81.8,46.0,29.81,South,189,0.0,-999.0,28,-99.99,,,0.00,weatherlink.com 1.10,2013-07-25 06:32:00,
2013-07-24 23:47:00,81.6,45.0,29.81,South,189,0.0,-999.0,28,-99.99,,,0.00,weatherlink.com 1.10,2013-07-25 06:47:00,